Location: Acheville
(50.3840°N, 2.8827°E)
Time: 15:51:06
(UTC+00:00)

Cosmos 1626 Rocket - Pass Details

Date: 24 October 2021
Orbit: 602 x 631 km, 82.5° (Epoch: 28 November)

Event Time Altitude Azimuth Distance (km) Brightness Sun altitude
Rises 18:18:23 0° 347° (NNW) 2,872 7.2 -16.5°
Reaches altitude 10° 18:20:37 10° 344° (NNW) 1,962 6.3 -16.9°
Maximum altitude 18:24:53 62° 264° (W) 684 4.0 -17.5°
Drops below altitude 10° 18:29:08 10° 184° (S) 1,946 6.1 -18.2°
Sets 18:31:21 0° 181° (S) 2,846 6.9 -18.6°
